QPF
0.00 0.00 0.00 0.00 0.00 0.00 0.00 0.00 0.00 0.00 0.00 0.00 0.00 0.00 0.00 0.00 0.00 0.00 0.00 0.00 0.00 0.00 0.00 0.00 0.00 0.00 0.00 0.00 0.00 0.00 0.00 0.00 0.00 0.01 0.01 0.00 0.00 0.00 0.00 0.00 0.00 0.00 0.00
0.00 0.00 0.00 0.00 0.00 0.00 0.00 0.00 0.00 0.00 0.00 0.00 0.00 0.00 0.00 0.00 0.00 0.00 0.00 0.00 0.00 0.00 0.00 0.00 0.00 0.00 0.00 0.00 0.00 0.00 0.00 0.00 0.00 0.01 0.01 0.01 0.02 0.01 0.00 0.00 0.00 0.00 0.00
0.00 0.00 0.00 0.00 0.00 0.00 0.00 0.00 0.00 0.00 0.00 0.00 0.00 0.00 0.00 0.00 0.00 0.00 0.00 0.00 0.00 0.00 0.00 0.00 0.01 0.01 0.02 0.01 0.01 0.03 0.04 0.04 0.04 0.05 0.05 0.03 0.05 0.02 0.00 0.00 0.00 0.00 0.00
0.00 0.00 0.00 0.00 0.00 0.00 0.00 0.00 0.00 0.00 0.00 0.00 0.00 0.00 0.00 0.00 0.00 0.00 0.01 0.01 0.01 0.00 0.00 0.02 0.09 0.09 0.09 0.08 0.08 0.12 0.13 0.09 0.08 0.21 0.53 0.42 0.19 0.18 0.12 0.04 0.00 0.00 0.00
0.00 0.00 0.00 0.00 0.00 0.00 0.00 0.00 0.00 0.00 0.00 0.00 0.00 0.00 0.00 0.00 0.00 0.00 0.02 0.03 0.07 0.07 0.06 0.04 0.04 0.02 0.02 0.04 0.06 0.08 0.16 0.21 0.47 0.85 0.86 0.64 0.40 0.27 0.14 0.02 0.00 0.00 0.00
0.00 0.00 0.00 0.00 0.00 0.00 0.00 0.00 0.00 0.00 0.00 0.00 0.00 0.00 0.00 0.00 0.00 0.00 0.00 0.03 0.04 0.04 0.03 0.02 0.00 0.00 0.01 0.02 0.04 0.06 0.09 0.10 0.18 0.30 0.34 0.24 0.12 0.04 0.03 0.04 0.00 0.00 0.00
0.00 0.00 0.00 0.00 0.00 0.00 0.00 0.00 0.00 0.00 0.00 0.00 0.00 0.00 0.00 0.00 0.00 0.00 0.01 0.01 0.02 0.02 0.02 0.01 0.01 0.00 0.01 0.01 0.02 0.04 0.08 0.16 0.28 0.32 0.31 0.30 0.12 0.02 0.02 0.01 0.00 0.00 0.00
0.00 0.00 0.00 0.00 0.00 0.00 0.00 0.00 0.00 0.00 0.00 0.00 0.00 0.00 0.00 0.00 0.00 0.00 0.00 0.00 0.00 0.00 0.01 0.00 0.00 0.00 0.00 0.01 0.05 0.09 0.14 0.32 0.51 0.37 0.22 0.06 0.01 0.01 0.00 0.00 0.00 0.00 0.00
0.00 0.00 0.00 0.00 0.00 0.00 0.00 0.00 0.00 0.00 0.00 0.00 0.00 0.00 0.00 0.00 0.00 0.00 0.00 0.00 0.00 0.00 0.00 0.00 0.00 0.00 0.01 0.03 0.09 0.13 0.15 0.17 0.12 0.04 0.01 0.00 0.00 0.00 0.00 0.00 0.00 0.00 0.00
0.00 0.00 0.00 0.00 0.00 0.00 0.00 0.00 0.00 0.00 0.00 0.00 0.00 0.00 0.00 0.00 0.00 0.00 0.00 0.00 0.00 0.00 0.00 0.00 0.00 0.00 0.02 0.06 0.11 0.12 0.13 0.12 0.04 0.01 0.00 0.00 0.00 0.00 0.00 0.00 0.00 0.00 0.00
0.00 0.00 0.00 0.00 0.00 0.00 0.00 0.00 0.00 0.00 0.00 0.00 0.00 0.00 0.00 0.00 0.00 0.00 0.00 0.00 0.00 0.00 0.00 0.00 0.00 0.01 0.02 0.04 0.05 0.05 0.05 0.04 0.02 0.01 0.01 0.00 0.00 0.00 0.00 0.00 0.00 0.00 0.00
0.00 0.00 0.00 0.00 0.00 0.00 0.00 0.00 0.00 0.00 0.00 0.00 0.00 0.00 0.00 0.00 0.00 0.00 0.00 0.00 0.00 0.00 0.00 0.00 0.00 0.00 0.01 0.00 0.01 0.01 0.00 0.00 0.00 0.00 0.00 0.00 0.00 0.00 0.00 0.00 0.00 0.00 0.00
0.00 0.00 0.00 0.00 0.00 0.00 0.00 0.00 0.00 0.00 0.00 0.00 0.00 0.00 0.00 0.00 0.00 0.00 0.00 0.00 0.00 0.00 0.00 0.00 0.00 0.00 0.00 0.00 0.00 0.00 0.00 0.00 0.00 0.00 0.00 0.00 0.00 0.00 0.00 0.00 0.00 0.00 0.00
0.00 0.00 0.00 0.00 0.00 0.00 0.00 0.00 0.00 0.00 0.00 0.00 0.00 0.00 0.00 0.00 0.00 0.00 0.00 0.00 0.00 0.00 0.00 0.00 0.00 0.00 0.00 0.01 0.00 0.01 0.01 0.00 0.00 0.00 0.00 0.00 0.00 0.00 0.00 0.00 0.00 0.00 0.00
0.00 0.00 0.00 0.00 0.00 0.00 0.00 0.00 0.00 0.00 0.00 0.00 0.00 0.00 0.00 0.00 0.00 0.00 0.00 0.00 0.00 0.00 0.00 0.00 0.01 0.01 0.01 0.00 0.00 0.01 0.00 0.00 0.00 0.00 0.00 0.00 0.00 0.00 0.00 0.00 0.00 0.00 0.00
0.00 0.00 0.00 0.00 0.00 0.00 0.00 0.00 0.00 0.00 0.00 0.00 0.00 0.00 0.00 0.00 0.00 0.00 0.00 0.00 0.01 0.04 0.05 0.03 0.04 0.03 0.02 0.02 0.01 0.01 0.00 0.00 0.00 0.00 0.00 0.00 0.00 0.00 0.01 0.00 0.00 0.00 0.00
0.00 0.00 0.00 0.00 0.00 0.00 0.00 0.00 0.00 0.00 0.00 0.00 0.00 0.00 0.00 0.00 0.00 0.00 0.01 0.04 0.07 0.05 0.03 0.04 0.04 0.03 0.02 0.01 0.01 0.00 0.00 0.00 0.00 0.00 0.00 0.01 0.01 0.01 0.00 0.00 0.00 0.00 0.00
0.00 0.00 0.00 0.00 0.00 0.00 0.00 0.00 0.00 0.00 0.00 0.00 0.00 0.00 0.00 0.00 0.00 0.01 0.02 0.02 0.02 0.02 0.02 0.02 0.03 0.03 0.03 0.02 0.01 0.00 0.00 0.00 0.00 0.01 0.01 0.01 0.02 0.02 0.00 0.00 0.00 0.00 0.00
0.00 0.00 0.00 0.00 0.00 0.00 0.00 0.00 0.00 0.00 0.00 0.00 0.00 0.00 0.00 0.00 0.00 0.00 0.00 0.00 0.00 0.01 0.01 0.02 0.02 0.02 0.02 0.02 0.01 0.02 0.01 0.02 0.05 0.06 0.06 0.08 0.09 0.03 0.00 0.00 0.00 0.00 0.00
0.00 0.00 0.00 0.00 0.00 0.00 0.00 0.00 0.00 0.00 0.00 0.00 0.00 0.00 0.00 0.00 0.00 0.00 0.00 0.00 0.00 0.00 0.01 0.01 0.02 0.04 0.06 0.11 0.11 0.10 0.11 0.17 0.16 0.15 0.14 0.10 0.03 0.00 0.00 0.00 0.00 0.00 0.00
0.00 0.00 0.00 0.00 0.00 0.00 0.00 0.00 0.00 0.00 0.00 0.00 0.00 0.00 0.00 0.00 0.00 0.00 0.00 0.00 0.00 0.00 0.01 0.04 0.09 0.15 0.15 0.19 0.22 0.19 0.16 0.18 0.20 0.17 0.12 0.06 0.02 0.00 0.01 0.01 0.00 0.00 0.00
0.00 0.00 0.00 0.00 0.00 0.00 0.00 0.00 0.00 0.00 0.00 0.00 0.00 0.00 0.00 0.00 0.00 0.00 0.00 0.00 0.00 0.00 0.01 0.04 0.08 0.11 0.15 0.19 0.22 0.23 0.25 0.25 0.20 0.13 0.06 0.03 0.01 0.00 0.00 0.00 0.00 0.00 0.00
0.00 0.00 0.00 0.00 0.00 0.00 0.00 0.00 0.00 0.00 0.00 0.00 0.00 0.00 0.00 0.00 0.00 0.00 0.00 0.00 0.00 0.00 0.02 0.07 0.12 0.16 0.18 0.18 0.26 0.27 0.21 0.15 0.09 0.05 0.02 0.01 0.00 0.00 0.00 0.00 0.00 0.00 0.00
0.00 0.00 0.00 0.00 0.00 0.00 0.00 0.00 0.00 0.00 0.00 0.00 0.00 0.00 0.00 0.00 0.00 0.00 0.00 0.00 0.01 0.04 0.11 0.18 0.27 0.31 0.33 0.37 0.33 0.26 0.21 0.13 0.07 0.03 0.01 0.00 0.00 0.00 0.00 0.00 0.00 0.00 0.00
0.00 0.00 0.00 0.00 0.00 0.00 0.00 0.00 0.00 0.00 0.00 0.00 0.00 0.00 0.00 0.00 0.00 0.00 0.01 0.03 0.08 0.13 0.16 0.26 0.32 0.31 0.24 0.17 0.14 0.11 0.09 0.06 0.02 0.01 0.00 0.00 0.00 0.00 0.00 0.00 0.00 0.00 0.00
0.00 0.00 0.00 0.00 0.00 0.00 0.00 0.00 0.00 0.00 0.00 0.00 0.00 0.01 0.00 0.00 0.01 0.03 0.06 0.13 0.16 0.21 0.20 0.16 0.12 0.10 0.08 0.04 0.03 0.04 0.06 0.04 0.01 0.01 0.01 0.00 0.00 0.00 0.00 0.00 0.00 0.01 0.03
MSLP
1005.63 1005.73 1005.54 1005.70 1006.37 1007.05 1007.55 1007.96 1008.78 1009.38 1010.39 1011.08 1011.61 1012.03 1011.85 1012.31 1012.71 1012.77 1013.05 1013.35 1013.65 1014.01 1014.30 1014.51 1014.97 1015.40 1015.93 1016.28 1016.61 1016.96 1017.26 1017.37 1017.41 1018.08 1018.53 1018.75 1018.46 1017.92 1017.57 1017.68 1018.59 1019.02 1019.14
1005.84 1005.26 1004.91 1005.05 1005.28 1005.33 1005.91 1007.13 1007.47 1008.37 1008.86 1009.50 1009.91 1010.73 1011.21 1011.37 1011.73 1012.11 1012.14 1012.51 1012.93 1013.33 1013.64 1013.99 1014.42 1014.88 1015.34 1015.72 1016.02 1016.29 1016.55 1016.59 1017.07 1017.82 1018.69 1018.86 1018.90 1018.52 1018.35 1018.69 1018.62 1019.72 1019.81
1005.47 1004.73 1004.66 1004.50 1004.42 1004.85 1004.96 1005.52 1005.96 1006.61 1007.50 1008.56 1009.67 1010.42 1010.93 1011.28 1011.32 1011.21 1011.27 1011.55 1012.11 1012.58 1012.92 1013.17 1013.69 1014.00 1014.29 1014.46 1014.72 1014.90 1015.15 1015.81 1016.65 1016.87 1017.57 1018.28 1019.87 1018.33 1018.53 1018.60 1018.81 1018.17 1018.71
1005.57 1004.90 1004.52 1004.14 1003.96 1003.65 1003.72 1004.49 1005.56 1006.29 1007.18 1008.09 1008.82 1009.24 1009.44 1009.98 1009.87 1010.26 1010.71 1011.10 1011.45 1011.79 1012.08 1012.41 1012.66 1012.93 1013.11 1013.38 1013.54 1013.97 1014.25 1015.01 1015.64 1016.61 1017.15 1016.14 1017.81 1018.97 1018.63 1018.16 1018.72 1018.46 1019.22
1005.73 1005.05 1004.57 1004.40 1004.09 1004.24 1004.26 1004.72 1005.41 1006.11 1006.69 1007.39 1008.04 1008.83 1009.27 1009.35 1009.58 1009.94 1010.38 1010.73 1011.01 1010.92 1011.10 1011.27 1011.70 1011.92 1012.20 1012.18 1012.46 1012.95 1013.38 1014.05 1014.67 1014.72 1014.91 1016.55 1017.16 1018.94 1018.56 1019.40 1019.38 1017.91 1018.12
1005.48 1005.14 1004.90 1004.62 1004.65 1004.83 1004.92 1005.12 1005.50 1006.19 1006.70 1007.15 1007.71 1008.03 1008.53 1009.00 1009.32 1009.55 1009.79 1009.98 1010.08 1010.21 1010.60 1010.89 1010.94 1011.15 1011.34 1011.44 1011.55 1012.00 1012.73 1013.28 1013.49 1013.91 1013.81 1015.13 1016.65 1017.52 1018.24 1018.33 1018.72 1018.78 1017.69
1005.68 1005.31 1005.13 1005.19 1005.21 1005.30 1005.37 1005.44 1005.48 1005.68 1005.94 1006.35 1006.78 1007.07 1007.53 1008.17 1008.44 1008.63 1008.84 1009.10 1009.32 1009.40 1009.42 1009.78 1009.95 1010.17 1010.38 1010.69 1011.03 1011.39 1012.01 1012.69 1013.40 1013.67 1014.10 1015.67 1014.39 1016.68 1016.84 1017.45 1018.17 1018.40 1018.12
1005.67 1005.57 1005.46 1005.33 1005.27 1005.51 1005.60 1005.60 1005.68 1005.82 1006.08 1006.18 1006.33 1006.51 1006.77 1006.99 1007.16 1007.54 1007.91 1008.10 1008.31 1008.35 1008.63 1008.98 1009.28 1009.51 1009.82 1010.08 1010.41 1010.89 1011.57 1012.23 1012.88 1012.22 1013.25 1014.42 1014.30 1015.50 1016.45 1016.64 1017.26 1017.79 1018.01
1006.47 1006.30 1006.07 1005.87 1005.67 1005.54 1005.49 1005.47 1005.34 1005.33 1005.48 1005.52 1005.67 1005.76 1005.93 1006.18 1006.19 1006.42 1006.86 1007.13 1007.44 1007.75 1008.06 1008.33 1008.62 1008.88 1009.19 1009.52 1009.90 1010.36 1010.76 1011.56 1012.37 1012.69 1013.47 1013.50 1014.12 1015.07 1015.62 1015.83 1016.17 1016.71 1017.39
1006.37 1006.10 1006.02 1005.98 1005.95 1005.82 1005.41 1005.40 1005.40 1005.05 1004.77 1004.93 1005.01 1005.03 1005.08 1005.33 1005.53 1005.90 1005.89 1006.22 1006.56 1006.90 1007.20 1007.57 1007.94 1008.28 1008.62 1009.01 1009.41 1009.96 1010.48 1011.02 1011.69 1012.17 1013.13 1013.60 1014.28 1014.36 1014.54 1014.95 1015.38 1015.89 1016.25
1006.58 1006.44 1006.22 1005.51 1005.24 1004.99 1004.76 1004.63 1004.73 1004.42 1004.39 1004.22 1004.05 1004.24 1004.24 1004.54 1004.82 1004.92 1005.11 1005.35 1005.70 1006.02 1006.40 1006.78 1007.19 1007.57 1007.95 1008.37 1008.76 1009.06 1009.60 1010.30 1011.02 1011.50 1012.48 1012.98 1013.04 1013.53 1014.00 1014.51 1014.83 1015.25 1015.35
1006.28 1005.99 1005.77 1005.32 1004.87 1004.52 1004.26 1003.93 1003.55 1003.60 1003.09 1003.19 1003.45 1003.47 1003.84 1004.06 1004.48 1004.22 1004.37 1004.56 1004.89 1005.43 1005.66 1006.12 1006.56 1006.99 1007.43 1007.81 1008.18 1008.62 1009.12 1009.68 1010.47 1010.94 1011.89 1012.10 1012.61 1013.17 1013.32 1013.80 1014.26 1014.57 1015.06
1006.09 1005.93 1005.64 1005.33 1004.73 1004.15 1003.75 1003.26 1002.87 1002.66 1002.37 1002.68 1002.93 1003.28 1003.45 1003.74 1003.72 1003.66 1003.63 1003.89 1004.17 1004.61 1005.12 1005.53 1005.93 1006.34 1006.89 1007.36 1007.80 1008.22 1008.78 1009.41 1009.85 1010.34 1010.81 1011.31 1011.97 1012.60 1013.26 1013.66 1014.05 1014.76 1014.60
1006.20 1006.09 1005.67 1005.44 1004.83 1004.11 1003.56 1002.81 1002.35 1002.04 1001.99 1002.25 1002.51 1002.80 1002.81 1002.83 1002.80 1002.99 1003.23 1003.30 1003.46 1003.98 1004.55 1004.91 1005.29 1005.73 1006.40 1006.96 1007.29 1007.87 1008.55 1008.91 1009.36 1009.71 1010.24 1010.71 1011.24 1011.93 1012.61 1013.26 1013.55 1013.99 1014.03
1006.53 1006.48 1006.47 1006.23 1005.58 1004.70 1004.00 1003.06 1002.18 1001.80 1002.00 1002.05 1002.29 1002.16 1002.45 1002.83 1002.94 1002.89 1002.68 1002.72 1003.12 1003.39 1003.95 1004.64 1005.04 1005.33 1005.71 1006.22 1006.65 1007.16 1007.69 1008.40 1009.14 1009.76 1010.21 1010.53 1011.06 1011.58 1011.93 1012.48 1013.05 1013.08 1013.22
1007.60 1007.60 1007.33 1006.97 1006.38 1005.57 1005.02 1004.17 1003.27 1002.25 1001.81 1001.86 1002.28 1002.40 1002.37 1002.44 1002.50 1002.42 1002.53 1002.89 1003.22 1003.32 1003.61 1003.90 1004.32 1004.51 1004.85 1005.16 1005.72 1006.37 1007.09 1007.73 1008.11 1008.89 1009.85 1010.66 1011.26 1011.60 1012.05 1012.18 1012.41 1012.29 1012.63
1008.38 1008.26 1007.99 1007.66 1007.05 1006.33 1005.88 1005.31 1004.44 1003.46 1002.80 1002.52 1002.43 1002.31 1002.23 1002.22 1002.25 1002.23 1002.34 1002.43 1002.38 1002.72 1002.95 1003.21 1003.72 1004.02 1004.21 1004.73 1005.49 1006.02 1006.60 1007.55 1008.11 1008.76 1009.76 1010.41 1011.01 1011.17 1011.30 1011.57 1011.39 1011.72 1012.02
1008.66 1008.49 1008.39 1008.04 1007.51 1006.90 1006.28 1005.81 1004.97 1004.42 1003.84 1003.40 1003.18 1002.90 1002.62 1002.47 1002.41 1002.49 1002.49 1002.54 1002.67 1002.78 1002.83 1002.81 1003.20 1003.67 1004.03 1004.63 1005.42 1005.60 1006.60 1007.50 1008.02 1008.42 1009.40 1010.07 1010.42 1010.52 1010.78 1011.05 1011.10 1011.26 1011.70
1008.96 1008.93 1008.82 1008.34 1007.83 1007.66 1007.01 1006.36 1005.59 1005.17 1004.86 1004.67 1004.44 1004.00 1003.63 1003.46 1003.24 1003.02 1002.94 1002.94 1002.98 1002.97 1002.93 1003.15 1003.53 1003.94 1004.73 1005.43 1005.89 1006.89 1008.42 1009.77 1009.11 1008.95 1009.32 1010.00 1010.36 1010.40 1011.38 1011.23 1011.03 1011.29 1011.69
1009.29 1009.11 1008.95 1008.71 1008.15 1007.82 1007.44 1006.76 1006.40 1005.92 1005.77 1005.72 1005.44 1005.10 1004.65 1004.30 1004.05 1003.82 1003.73 1003.76 1003.72 1003.47 1003.38 1003.42 1003.78 1004.30 1005.28 1006.10 1006.58 1006.33 1007.46 1008.24 1009.51 1010.24 1010.27 1010.40 1010.13 1010.84 1011.02 1010.85 1011.10 1011.00 1011.21
1008.75 1009.14 1009.24 1008.97 1008.87 1008.64 1008.27 1007.66 1007.25 1007.36 1006.98 1006.33 1005.94 1005.54 1005.20 1005.02 1004.73 1004.43 1004.19 1004.05 1004.01 1004.04 1004.19 1004.33 1004.38 1004.43 1005.07 1005.90 1006.48 1007.21 1008.23 1008.33 1008.90 1009.38 1009.50 1009.60 1010.64 1010.60 1010.51 1010.67 1010.77 1010.99 1011.01
1008.56 1008.15 1009.79 1008.85 1009.21 1009.15 1008.80 1008.59 1008.51 1008.31 1007.55 1007.04 1006.66 1006.45 1006.08 1005.71 1005.37 1005.07 1004.88 1004.73 1004.64 1004.81 1004.98 1004.94 1005.01 1005.22 1005.73 1006.48 1007.53 1007.90 1008.30 1008.61 1009.03 1009.55 1009.54 1009.72 1009.79 1009.95 1009.69 1010.20 1010.30 1010.57 1011.04
1008.78 1009.20 1009.79 1009.63 1009.89 1009.99 1009.94 1009.65 1009.35 1008.71 1008.08 1007.73 1007.58 1007.24 1006.85 1006.60 1006.27 1006.08 1006.05 1006.05 1005.87 1005.92 1006.15 1006.31 1006.63 1006.86 1007.27 1007.66 1007.58 1007.97 1008.45 1008.78 1009.29 1009.60 1009.62 1009.33 1009.33 1009.39 1009.48 1009.68 1009.83 1010.15 1010.50
1009.65 1009.62 1010.00 1010.65 1010.92 1010.81 1010.88 1010.41 1009.71 1008.88 1008.63 1008.38 1008.12 1008.00 1008.03 1007.87 1007.55 1007.37 1007.37 1007.38 1007.31 1007.31 1007.33 1007.57 1007.95 1008.15 1008.29 1008.08 1008.08 1008.11 1008.26 1008.69 1009.01 1009.13 1008.93 1008.94 1008.77 1009.05 1009.36 1009.49 1009.79 1010.28 1010.28
1010.40 1010.52 1010.93 1011.42 1011.81 1011.63 1011.24 1010.98 1010.49 1010.00 1009.35 1009.19 1009.15 1008.78 1008.82 1008.81 1008.70 1008.57 1008.72 1008.68 1008.69 1008.36 1008.22 1008.21 1008.12 1008.25 1008.28 1008.18 1007.92 1008.06 1008.26 1008.46 1008.71 1008.91 1008.84 1009.03 1008.78 1009.21 1009.22 1009.50 1009.54 1010.31 1009.97
1011.54 1011.81 1011.94 1012.40 1012.42 1012.40 1012.21 1011.95 1011.36 1010.61 1010.18 1009.97 1009.88 1009.82 1009.74 1009.65 1009.61 1009.51 1009.22 1008.98 1008.87 1008.57 1008.33 1008.16 1008.18 1008.11 1007.97 1007.77 1007.80 1007.84 1007.99 1008.41 1008.70 1008.77 1008.67 1008.62 1008.78 1009.08 1008.92 1009.01 1009.82 1009.88 1009.84
Thickness
5777 5782 5785 5784 5779 5774 5769 5767 5759 5754 5745 5739 5734 5731 5732 5729 5726 5724 5721 5718 5715 5712 5708 5706 5701 5694 5690 5685 5680 5675 5669 5666 5662 5654 5647 5642 5641 5639 5637 5638 5627 5621 5615
5766 5774 5779 5782 5782 5783 5778 5767 5764 5756 5752 5747 5743 5737 5733 5733 5729 5725 5722 5719 5714 5710 5706 5703 5698 5692 5686 5681 5676 5671 5666 5663 5655 5644 5634 5631 5629 5626 5621 5614 5613 5596 5591
5769 5778 5775 5776 5783 5780 5781 5776 5771 5765 5757 5749 5740 5733 5729 5727 5725 5725 5724 5720 5713 5707 5703 5700 5695 5691 5686 5684 5679 5674 5668 5659 5648 5644 5633 5622 5605 5604 5605 5602 5600 5601 5591
5762 5768 5772 5774 5775 5784 5787 5780 5770 5762 5755 5748 5740 5737 5736 5731 5732 5726 5721 5716 5711 5706 5702 5697 5694 5692 5688 5683 5680 5674 5667 5655 5646 5635 5621 5610 5613 5598 5590 5596 5592 5591 5580
5752 5759 5764 5766 5772 5773 5774 5772 5766 5759 5754 5748 5741 5734 5730 5731 5727 5721 5716 5712 5708 5706 5703 5699 5693 5690 5686 5685 5680 5673 5664 5654 5642 5636 5628 5620 5609 5589 5598 5591 5575 5587 5582
5750 5756 5760 5762 5762 5762 5762 5761 5757 5750 5746 5742 5736 5733 5728 5723 5719 5716 5712 5709 5708 5705 5700 5695 5694 5690 5686 5683 5679 5671 5660 5651 5644 5633 5632 5623 5605 5597 5587 5585 5568 5571 5579
5745 5749 5751 5751 5751 5751 5751 5751 5751 5749 5746 5741 5736 5733 5728 5721 5717 5714 5711 5707 5703 5701 5699 5694 5691 5687 5683 5678 5671 5664 5655 5645 5635 5630 5625 5603 5615 5593 5592 5583 5571 5565 5558
5741 5742 5745 5743 5743 5742 5740 5739 5738 5737 5733 5732 5730 5727 5724 5721 5718 5713 5709 5706 5702 5700 5696 5691 5685 5680 5676 5671 5666 5658 5649 5640 5630 5632 5618 5609 5608 5593 5581 5576 5565 5554 5545
5722 5724 5728 5730 5732 5733 5732 5730 5730 5729 5727 5726 5724 5723 5720 5717 5716 5713 5708 5704 5699 5694 5690 5685 5680 5676 5670 5664 5659 5652 5645 5634 5623 5615 5605 5604 5594 5581 5572 5565 5556 5548 5541
5720 5722 5722 5722 5722 5723 5726 5724 5721 5723 5724 5721 5720 5718 5717 5713 5709 5705 5704 5699 5694 5691 5687 5680 5675 5669 5664 5658 5651 5643 5635 5626 5619 5611 5599 5586 5578 5574 5567 5559 5551 5542 5536
5712 5713 5714 5719 5720 5720 5721 5722 5719 5720 5719 5718 5718 5715 5713 5708 5704 5702 5697 5692 5688 5684 5679 5674 5668 5663 5658 5651 5645 5640 5632 5623 5613 5605 5593 5583 5578 5569 5560 5551 5543 5533 5527
5704 5706 5708 5710 5713 5714 5714 5715 5717 5715 5720 5717 5712 5710 5705 5700 5694 5694 5690 5685 5681 5676 5673 5667 5662 5656 5650 5644 5638 5632 5626 5617 5606 5598 5585 5578 5569 5559 5553 5543 5531 5523 5513
5700 5699 5701 5702 5703 5706 5707 5707 5707 5709 5712 5707 5704 5700 5697 5691 5690 5688 5685 5680 5676 5671 5665 5660 5655 5649 5641 5634 5628 5622 5614 5605 5595 5586 5578 5569 5559 5549 5537 5527 5517 5506 5503
5688 5688 5691 5691 5692 5695 5697 5701 5699 5699 5700 5695 5693 5689 5689 5688 5686 5682 5677 5675 5672 5666 5658 5653 5646 5640 5632 5625 5619 5610 5600 5592 5584 5577 5569 5560 5552 5540 5527 5515 5507 5498 5494
5672 5672 5672 5673 5674 5679 5682 5685 5689 5690 5686 5685 5682 5683 5679 5674 5671 5669 5670 5667 5662 5657 5649 5641 5636 5631 5625 5616 5609 5601 5592 5581 5570 5561 5553 5546 5537 5526 5516 5505 5496 5492 5488
5649 5648 5651 5654 5656 5660 5661 5666 5669 5675 5677 5675 5670 5668 5669 5669 5667 5665 5662 5656 5651 5647 5641 5634 5627 5622 5616 5609 5600 5592 5582 5572 5564 5552 5538 5527 5517 5509 5501 5494 5488 5485 5477
5630 5629 5631 5634 5638 5641 5642 5643 5648 5653 5657 5659 5659 5659 5659 5658 5657 5655 5650 5646 5645 5638 5633 5628 5619 5613 5607 5596 5587 5578 5569 5555 5544 5535 5522 5513 5503 5496 5491 5485 5481 5472 5465
5616 5615 5613 5616 5618 5620 5622 5624 5630 5634 5638 5641 5641 5642 5643 5643 5642 5638 5635 5631 5627 5623 5619 5616 5608 5599 5590 5579 5568 5560 5548 5535 5528 5519 5506 5498 5490 5484 5478 5472 5469 5463 5454
5599 5596 5594 5598 5600 5600 5603 5609 5614 5616 5618 5618 5618 5620 5620 5621 5621 5621 5619 5615 5610 5605 5601 5595 5587 5579 5565 5553 5543 5534 5515 5499 5497 5493 5487 5480 5471 5466 5456 5456 5452 5447 5438
5581 5581 5581 5582 5586 5587 5589 5594 5595 5600 5599 5596 5596 5597 5599 5600 5601 5599 5597 5592 5587 5584 5580 5574 5566 5554 5538 5528 5520 5519 5503 5493 5483 5468 5462 5457 5457 5445 5445 5443 5436 5434 5427
5574 5568 5565 5566 5567 5568 5568 5573 5574 5572 5572 5577 5579 5579 5579 5578 5577 5575 5573 5570 5566 5559 5552 5545 5538 5531 5519 5507 5501 5493 5480 5474 5465 5458 5452 5450 5436 5431 5428 5426 5423 5418 5414
5566 5566 5550 5555 5550 5551 5552 5552 5549 5549 5553 5555 5556 5555 5555 5555 5553 5550 5545 5540 5534 5526 5519 5512 5505 5498 5489 5478 5466 5460 5454 5447 5441 5436 5433 5427 5425 5419 5419 5413 5410 5406 5398
5552 5546 5538 5536 5533 5529 5527 5528 5528 5532 5534 5533 5530 5529 5527 5524 5521 5517 5511 5503 5499 5493 5483 5474 5465 5456 5451 5444 5441 5434 5428 5422 5414 5409 5407 5408 5407 5405 5402 5400 5398 5394 5389
5531 5530 5523 5514 5508 5508 5504 5505 5508 5513 5511 5509 5507 5502 5495 5490 5484 5479 5473 5466 5460 5453 5445 5434 5423 5418 5415 5416 5413 5406 5403 5398 5394 5391 5392 5392 5392 5391 5387 5386 5384 5379 5378
5509 5506 5500 5494 5487 5487 5487 5485 5484 5483 5485 5482 5475 5472 5465 5456 5450 5440 5432 5424 5414 5411 5406 5399 5396 5394 5393 5392 5393 5391 5388 5384 5382 5378 5377 5374 5378 5375 5375 5372 5373 5364 5368
5485 5481 5479 5472 5468 5464 5461 5458 5458 5459 5457 5452 5445 5436 5430 5422 5413 5404 5397 5390 5383 5380 5377 5377 5376 5376 5377 5378 5378 5375 5371 5367 5364 5363 5364 5364 5363 5361 5363 5365 5356 5357 5357